STARLINK-36711, 68040

Orbit data source: Space-Track

STARLINK-36711, 68040 is a payload satellite owned by SpaceX/Seattle (US) in LEO that was launched on Mon, 02 Mar 2026 UTC via an FALCON 9 launch vehicle from the Air Force Eastern Test Range (AFETR). Payload-class satellites include a variety of spacecraft equipped with specific instruments for various scientific and technological missions. These include communications satellites like Starlink; space stations such as the ISS; scientific satellites like the Hubble; Earth observation satellites from companies like Planet Labs, Umbra, and HawkEye 360; GPS; miniature CubeSats for education and research; and military/defense satellites.

Loading next visibility...
Identifier
68040, 2026-041A
Orbit
LEO
Country
Flag of USUS
Related business
Manufacturer
SpaceX/Seattle
Mission
Operational spacecraft
Bus & Motor
STARLINK V2MO, Unknown motor
Mass
575 kg wet, ~530 kg dry
Launch date (UTC)
2026-03-02 (1 month ago)
Launch vehicle
FALCON 9
Launch site
Air Force Eastern Test Range (AFETR)
Object type
Payload
Rocket body
Debris
Shape & HBR
Unknown shape, 17.7 m
Radar Cross Section
RCS unknown

Expand to show TLE details & history
Last TLE update: 7 hours ago

TLE from 7 hours ago
0 STARLINK-36711
1 68040U 26041A   26105.25002315  .00079265  00000-0  14207-2 0  9998
2 68040  53.1602 240.8589 0001091  56.0998 342.6407 15.49270302  6017
Epoch: 2026-04-15T06:00Z
TLE epoch observation values (Epoch: 2026-04-15T06:00:02.000Z)
Latitude
30.14669°
Longitude
-26.92652°
Altitude
419.874 km
Speed
7.664 km/s
True Right ascension
17h 45m 59s
True Declination
29° 59' 25"
Sunlit
Object was in daylight at epoch
Visualization orbit readout
Latitude
Unknown
Longitude
Unknown
Altitude
Unknown
Speed
Unknown
Apparent Right ascension
Unknown
Apparent Declination
Unknown
Sunlit
N/A
Visualization observer readout
Local Sidereal Time
19:41:24
Azimuth
Unknown
Elevation
Unknown
Doppler factor
Unknown
Orbital elements
Apogee altitude
419.86 km
Perigee altitude
418.376 km
Semi-major axis
6,797.255 km
Eccentricity
0.00011
Inclination
53.1602°
RAAN
240.8589°
Arg. of periapsis
56.0998°
True anomaly
342.63697°
Mean anomaly
342.6407°
Eccentric anomaly
342.63883°
Mean motion
3.87296 °/min
Orbital period
92.95 mins
BSTAR
0.0014207
Loading maneuver chart data...
Computing Atmospheric mass density...
Loading historical data...
Loading historical data...
Loading historical data...
Loading historical data...
Loading historical data...
Loading historical data...
Loading historical data...

Documentation

Showing up to 5 results
|